Hourly Data Report for January 02, 2018

All times are specified in Local Standard Time (LST). Add 1 hour to adjust for Daylight Saving Time where and when it is observed.

MONCTON INTL A
NEW BRUNSWICK

46°06'44.000" N
64°40'43.000" W
70.70 m
8103201
71705
YQM

Download Data

Hourly Data (January 2018)
Hourly Data Report for January 2, 2018
Temp Definition
°C
Dew Point Temp Definition
°C
Rel Hum Definition
%
Wind Dir Definition
10's deg

Wind Spd Definition
km/h
Visibility Definition
km
Stn Press Definition
kPa
Hmdx Definition


Wind Chill Definition


Weather Definition


TIME
00:00 Legend Double Dagger -19.2 -22.6 74 24 19 24.1 100.60   -29 LegendNANA
01:00 Legend Double Dagger -19.4 -22.9 74 24 21 24.1 100.56   -30 LegendNANA
02:00 Legend Double Dagger -19.4 -22.8 74 25 17 24.1 100.54   -29 Cloudy
03:00 Legend Double Dagger -19.4 -22.7 76 23 24 24.1 100.57   -31 LegendNANA
04:00 Legend Double Dagger -19.6 -22.8 77 23 19 24.1 100.55   -30 LegendNANA
05:00 Legend Double Dagger -19.8 -22.9 77 24 19 24.1 100.53   -30 Mostly Cloudy
06:00 Legend Double Dagger -19.4 -22.4 77 24 17 24.1 100.54   -29 LegendNANA
07:00 Legend Double Dagger -19.0 -22.0 77 24 21 24.1 100.57   -29 Snow
08:00 Legend Double Dagger -18.5 -21.6 77 24 23 16.1 100.58   -29 Snow
09:00 Legend Double Dagger -17.9 -21.1 77 25 21 24.1 100.60   -28 Snow
10:00 Legend Double Dagger -17.4 -20.9 74 25 25 24.1 100.59   -28 Snow
11:00 Legend Double Dagger -16.2 -20.8 68 23 18 24.1 100.61   -25 Mostly Cloudy
12:00 Legend Double Dagger -15.3 -20.5 65 25 27 24.1 100.53   -26 LegendNANA
13:00 Legend Double Dagger -14.4 -19.6 65 24 28 24.1 100.47   -25 LegendNANA
14:00 Legend Double Dagger -13.9 -19.1 66 24 27 24.1 100.42   -24 Mostly Cloudy
15:00 Legend Double Dagger -12.5 -18.6 61 25 22 24.1 100.40   -21 LegendNANA
16:00 Legend Double Dagger -11.8 -18.5 58 25 23 24.1 100.44   -21 LegendNANA
17:00 Legend Double Dagger -13.2 -19.4 60 25 29 24.1 100.49   -24 Clear
18:00 Legend Double Dagger -14.8 -20.0 65 25 28 24.1 100.59   -25 LegendNANA
19:00 Legend Double Dagger -15.4 -20.4 66 25 25 24.1 100.66   -26 LegendNANA
20:00 Legend Double Dagger -15.7 -20.8 66 25 30 24.1 100.74   -27 Clear
21:00 Legend Double Dagger -16.4 -20.9 69 23 27 24.1 100.76   -27 LegendNANA
22:00 Legend Double Dagger -17.1 -21.7 68 24 26 24.1 100.77   -28 LegendNANA
23:00 Legend Double Dagger -17.4 -22.8 63 24 23 24.1 100.78   -28 Mostly Cloudy

Notes on Data Quality.

Legend

  • E = Estimated
  • M = Missing
  • NA = Not Available
  • ‡ = Partner data that is not subject to review by the National Climate Archives
Date modified: